Regional Weather Roundup
Issued by NWS Portland, ME

Home | Current Version | Previous Version | Text Only | Print | Product List | Glossary On
Versions: 1 2 3 4 5 6 7 8 9 10 11 12 13 14 15 16 17 18 19 20 21 22 23 24 25 26 27 28 29 30 31 32 33 34 35 36 37 38 39 40 41 42 43 44 45 46 47 48 49 50
331
ASUS41 KGYX 211210
RWRGYX
WEATHER ROUNDUP FOR MAINE AND NEW HAMPSHIRE
NATIONAL WEATHER SERVICE GRAY ME
700 AM EST TUE FEB 21 2017

MEZ002-005-006-010-012-015-018-020-021-024-026-027-029-211300-
MAINE

CITY           SKY/WX    TMP DP  RH WIND       PRES   REMARKS
PORTLAND       CLOUDY    17  12  80 CALM      30.39R
6HR MIN TEMP:  15; 6HR MAX TEMP:  27;

SANFORD        CLOUDY    12  10  92 W3        30.38S
BAR HARBOR     CLOUDY    18  10  71 CALM      30.39R
WISCASSET      CLOUDY    16  11  80 CALM      30.41R
6HR MIN TEMP:  15; 6HR MAX TEMP:  28;

ROCKLAND       CLOUDY    25  10  53 CALM      30.38R
FRYEBURG       CLOUDY     8   5  87 CALM      30.37R
6HR MIN TEMP:   7; 6HR MAX TEMP:  18;

LEWISTONAUBURN CLOUDY    12   9  87 CALM      30.38R
AUGUSTA        CLOUDY    20   9  62 CALM      30.38R
6HR MIN TEMP:  19; 6HR MAX TEMP:  26;

WATERVILLE     CLOUDY    18  11  74 CALM      30.35R
BANGOR         CLOUDY    12   6  77 CALM      30.38R
6HR MIN TEMP:   8; 6HR MAX TEMP:  24;

GREENVILLE       N/A     16   8  71 N7        30.27F
6HR MIN TEMP:  10; 6HR MAX TEMP:  20;

MILLINOCKET    CLOUDY     9   4  80 NW5       30.38R
6HR MIN TEMP:   8; 6HR MAX TEMP:  21;

HOULTON        CLOUDY    -6  -9  86 CALM      30.33R
6HR MIN TEMP:  -7; 6HR MAX TEMP:   9;

PRESQUE ISLE   CLOUDY    -5 -10  79 CALM      30.36R
6HR MIN TEMP:  -9; 6HR MAX TEMP:   1;

FRENCHVILLE    CLOUDY     8   3  80 W6        30.30R
6HR MIN TEMP:   8; 6HR MAX TEMP:  15;

CARIBOU        CLOUDY     4  -1  80 CALM      30.33R
6HR MIN TEMP:   0; 6HR MAX TEMP:  13;

$$

NHZ002-005-008-009-011-012-014-211300-
NEW HAMPSHIRE

CITY           SKY/WX    TMP DP  RH WIND       PRES   REMARKS
PORTSMOUTH     PTCLDY    23  14  69 NW5       30.37S
ROCHESTER      CLOUDY    18  11  74 NW6       30.37S
6HR MIN TEMP:  18; 6HR MAX TEMP:  27;

NASHUA         CLOUDY    18  14  84 CALM      30.40R
MANCHESTER     CLOUDY    22  13  68 N3        30.38R
6HR MIN TEMP:  20; 6HR MAX TEMP:  28;

CONCORD        CLOUDY    13  10  88 CALM      30.39R
6HR MIN TEMP:  12; 6HR MAX TEMP:  20;

LACONIA        CLOUDY    13  10  88 MISG      30.38R
PLYMOUTH       FAIR      12  10  92 CALM      30.38R
BERLIN         CLOUDY     2  -6  69 CALM      30.33F
6HR MIN TEMP:  -1; 6HR MAX TEMP:  10;

WHITEFIELD     CLOUDY     4  -2  76 CALM      30.34S
6HR MIN TEMP:   3; 6HR MAX TEMP:  13;

JAFFREY        CLOUDY    12   9  87 CALM      30.35R
6HR MIN TEMP:  10; 6HR MAX TEMP:  17;

KEENE          CLOUDY    13  10  88 CALM      30.41R
LEBANON        CLOUDY    12   9  87 CALM      30.39R
6HR MIN TEMP:  11; 6HR MAX TEMP:  19;

MT WASHINGTON  PTCLDY    30   1  29 NE10        N/A
6HR MIN TEMP:  17; 6HR MAX TEMP:  30;

$$

VTZ005-007-008-211300-
VERMONT

CITY           SKY/WX    TMP DP  RH WIND       PRES   REMARKS
ST JOHNSBURY     N/A      9   6  88 MISG      30.37R
MONTPELIER     CLOUDY     9   8  96 CALM      30.36S
BURLINGTON     CLOUDY    20  13  74 CALM      30.33S
$$

MAZ007-012-024-CTZ003-RIZ002-NYZ038-NYZ072-211300-
SOUTHERN NEW ENGLAND AND NY

CITY           SKY/WX    TMP DP  RH WIND       PRES   REMARKS
BOSTON         PTCLDY    30  15  53 NW7       30.40R
WORCESTER      CLOUDY    29   8  41 N3        30.34R
NANTUCKET      CLEAR     35  28  75 N9        30.35R
PROVIDENCE     PTCLDY    28  14  55 NW3       30.39R
HARTFORD       CLOUDY    22  13  68 NE5       30.39F
ALBANY         CLOUDY    18  14  84 CALM      30.37F
NEW YORK CITY  CLOUDY    37  20  50 E9        30.36F
$$

ANZ081-ANZ082-ANZ150-NHZ014-MEZ023>029-211300-
COASTAL MARINE OBSERVATIONS

STATION/POSITION TIME  TEMP    WIND        PRES    WAVE
                       AIR SEA DIR/SP/G            HT/PER
                 (UTC) (F)     (DEG/KT/KT) (MB)    (FT/S)
MOUNT DESERT ROC 1200   28                 1028.4R
MATINICUS ROCK   1200   29      10/ 19/ 20 1027.9R
ISLE OF SHOALS   1200   33     350/  9/ 10 1028.6R
JEFFREYS LEDGE   1106      44                N/A     4/ 6
CASHES LEDGE BUO 1150   33 42              1027.7R   4/ 6
GEORGES BANK BUO 1150   36 42              1024.2R   7/ 7
$$

.............KEY..............
   WCI - WIND CHILL
   TC  - TEMPERATURE IN CELSIUS
   VSB - VISIBILITY IN MILES
   HX  - HEAT INDEX
   FAIR- INDICATES FEW OR NO CLOUDS BELOW 12,000 FT, WITH NO
         SIGNIFICANT WEATHER AND/OR OBSTRUCTIONS TO VISIBILITY.






USA.gov is the U.S. government's official web portal to all federal, state and local government web resources and services.